Temp
-1 -1 0 1 2 2 2 3 1 3 4 2 -1 -0 4 7 6 6 6 5 4 1 1 3 3 3 4 6 6 6 7 5 5 6 7 8 7 8 8 6 8 8 6 4
-2 -2 0 1 2 2 3 3 3 3 3 0 -1 3 6 7 6 6 5 5 3 2 -1 0 -0 2 5 5 5 6 7 6 6 8 8 9 8 8 7 7 6 6 6 4
-2 -2 0 1 2 3 3 4 -1 3 3 3 3 4 5 5 6 6 6 5 3 0 -2 0 0 1 5 6 5 7 6 5 5 6 6 5 6 9 8 7 6 4 4 3
-2 -1 0 1 2 2 4 3 0 2 -1 1 2 3 5 5 5 6 5 3 4 1 -2 -1 -1 1 4 5 6 5 5 5 4 4 4 5 5 8 6 6 5 4 3 1
-1 -0 -0 1 2 3 3 3 2 3 2 4 3 3 4 5 5 4 3 4 4 3 3 2 2 2 4 3 4 4 6 5 4 4 5 4 3 3 4 3 3 2 2 0
-1 -1 -0 1 2 2 2 2 3 4 1 2 1 0 4 4 5 5 5 4 3 3 3 4 4 4 4 4 4 4 5 5 5 5 5 5 3 2 2 2 2 4 3 0
-2 -1 0 1 2 2 4 3 3 3 -0 1 2 4 5 4 5 4 4 4 4 5 5 6 6 4 3 3 5 4 5 5 6 5 6 4 2 1 2 2 1 1 0 -1
-2 -1 -0 1 1 2 3 3 3 3 -1 1 3 3 3 3 3 3 4 4 4 4 4 3 5 4 6 7 6 6 5 5 5 5 4 3 2 1 1 2 1 0 0 -1
-2 -1 -1 0 0 2 3 3 3 3 1 0 2 2 2 1 0 1 3 4 4 4 0 1 4 4 5 4 5 6 5 5 5 5 5 4 1 -0 -0 2 1 -1 -1 -2
-2 -2 -1 -1 1 1 2 2 2 3 2 2 3 1 1 2 1 -0 0 2 2 3 -2 1 2 3 5 3 3 4 3 3 3 4 3 2 -1 -1 0 3 0 -1 -2 -3
-2 -2 -1 -1 0 1 1 1 2 2 2 2 2 2 2 2 2 -2 1 -1 1 -1 -1 0 1 1 3 3 3 3 2 2 2 3 2 2 -2 0 1 -1 -2 -2 -2 -3
-2 -2 -1 -1 -0 0 1 1 1 2 2 2 2 3 3 2 2 2 2 2 1 1 -2 1 -0 0 1 2 1 3 2 1 1 1 -0 -2 -2 -2 -2 -2 -2 -2 -2 -3
-2 -2 -2 -1 -0 -0 1 1 1 1 2 2 3 2 3 3 3 2 2 2 2 2 2 2 -0 1 1 1 1 2 2 2 -0 -0 -1 -2 -3 -3 -2 -2 -3 -3 -3 -4
-2 -3 -2 -1 -1 -0 0 1 1 1 1 1 2 2 2 2 2 2 2 2 2 2 2 1 -0 1 2 1 2 -0 -0 1 -1 -1 -2 -2 -3 -3 -3 -3 -3 -3 -4 -4
-3 -3 -2 -2 -1 -1 -0 0 0 0 1 -1 2 2 2 2 2 2 2 2 2 2 2 -2 0 1 1 0 0 -1 -0 -1 -1 -1 -1 -2 -3 -3 -3 -3 -4 -4 -4 -5
-3 -3 -3 -2 -2 -1 -0 -0 -0 0 0 1 -2 2 2 2 2 2 2 2 2 2 2 1 2 3 2 -1 -1 -1 -1 -0 0 -1 -1 -2 -3 -3 -3 -4 -4 -5 -5 -6
-3 -3 -3 -3 -2 -1 -1 -1 -1 -1 -0 -0 -2 1 3 3 3 3 2 2 2 2 2 1 1 3 2 -6 -2 -2 -2 -1 -2 -1 -2 -3 -3 -4 -4 -4 -5 -6 -6 -7
-3 -3 -3 -3 -2 -2 -2 -2 -2 -2 -1 -1 -3 -2 1 2 2 2 2 2 2 2 1 1 1 2 0 -2 -1 -2 -1 -2 -2 -2 -2 -2 -3 -4 -5 -5 -6 -6 -7 -8
-3 -3 -3 -4 -3 -2 -2 -2 -2 -2 -1 -0 -3 -3 -4 2 2 1 1 1 -3 1 -1 -0 0 -3 -2 -0 -2 -1 -2 -2 -3 -3 -3 -3 -3 -5 -6 -6 -6 -6 -7 -8
-3 -3 -3 -3 -3 -2 -2 -2 -2 -2 -2 -2 -1 -0 1 2 1 -0 0 1 -3 -2 -2 1 -3 -2 -1 -1 0 -0 -1 -2 -2 -3 -5 -4 -4 -5 -5 -6 -6 -6 -7 -8
-4 -3 -3 -3 -3 -2 -2 -2 -2 -2 -1 -2 -1 -0 -2 1 -3 -3 -0 -4 -4 -1 -1 -2 -4 -1 -3 -2 -1 -1 -2 -2 -2 -2 -2 -3 -3 -4 -5 -7 -7 -7 -7 -8
-3 -3 -3 -2 -2 -2 -2 -2 -1 -1 -2 -2 -2 -1 1 1 2 1 -0 -3 -4 -2 -2 -2 -4 -6 -3 -2 -1 -1 -2 -2 -3 -3 -3 -4 -4 -5 -6 -6 -7 -7 -8 -8
-3 -2 -2 -2 -2 -2 -3 -4 -1 -2 -2 -1 -1 -3 2 1 2 -1 -2 -4 -5 -2 -1 -4 -4 -4 -3 -3 -2 -2 -2 -2 -3 -3 -4 -4 -5 -6 -6 -6 -7 -7 -8 -8
-3 -3 -3 -3 -3 -4 -4 -3 -3 0 1 0 1 1 3 1 -2 -4 -4 -5 -2 -2 -3 -3 -6 -4 -3 -3 -3 -2 -3 -4 -4 -4 -5 -5 -5 -6 -6 -7 -7 -8 -8 -9
-4 -3 -3 -3 -2 -2 -2 -1 -1 -0 1 1 1 -0 1 -5 -3 -2 -4 -2 -2 -2 -4 -6 -2 -3 -3 -3 -3 -3 -4 -5 -5 -5 -5 -6 -6 -6 -6 -7 -8 -8 -9 -10
-4 -4 -4 -3 -2 -1 -1 -1 -1 -0 1 2 2 -3 -5 -4 -4 -1 -1 -2 -4 -4 -7 -1 -2 -2 -3 -3 -3 -4 -4 -5 -5 -6 -6 -6 -6 -7 -7 -8 -8 -9 -10 -11
-3 -3 -4 -3 -4 -3 -1 -0 -0 0 2 -6 -2 -4 -3 -3 -3 -3 -2 -5 -6 -1 -3 -2 -2 -1 -2 -3 -4 -4 -5 -5 -6 -6 -7 -7 -7 -8 -8 -9 -9 -10 -11 -11
Height
1415 1421 1429 1436 1442 1447 1455 1461 1469 1467 1471 1474 1478 1484 1478 1476 1477 1477 1481 1484 1487 1491 1488 1481 1479 1475 1471 1460 1457 1448 1443 1440 1435 1422 1418 1414 1413 1410 1409 1423 1415 1414 1425 1449
1418 1423 1427 1435 1442 1448 1456 1458 1466 1468 1470 1478 1481 1477 1475 1475 1476 1478 1481 1483 1485 1484 1490 1489 1484 1477 1460 1459 1456 1448 1441 1436 1430 1415 1413 1410 1414 1408 1411 1412 1417 1423 1427 1444
1420 1425 1430 1438 1443 1448 1454 1457 1468 1470 1471 1471 1474 1476 1476 1476 1476 1477 1478 1481 1482 1484 1487 1482 1482 1477 1461 1455 1452 1446 1441 1442 1435 1427 1425 1422 1414 1407 1410 1409 1426 1437 1443 1451
1423 1427 1432 1437 1443 1449 1453 1455 1461 1463 1473 1473 1474 1476 1474 1475 1477 1476 1478 1481 1481 1483 1491 1486 1484 1474 1465 1451 1449 1446 1446 1446 1442 1440 1435 1422 1418 1408 1420 1423 1435 1440 1455 1460
1423 1427 1434 1439 1445 1448 1452 1453 1456 1463 1466 1470 1474 1475 1475 1476 1477 1478 1480 1479 1478 1476 1480 1480 1475 1471 1465 1461 1449 1448 1443 1446 1444 1444 1441 1434 1433 1436 1437 1439 1449 1454 1458 1465
1426 1431 1437 1440 1445 1448 1448 1453 1456 1460 1468 1471 1475 1476 1474 1476 1476 1477 1476 1476 1476 1475 1473 1469 1462 1461 1460 1459 1459 1454 1446 1444 1443 1443 1441 1436 1446 1461 1455 1454 1456 1454 1458 1474
1430 1433 1436 1440 1444 1448 1448 1452 1458 1461 1472 1470 1470 1470 1473 1475 1475 1476 1475 1474 1474 1471 1465 1456 1451 1452 1453 1454 1451 1450 1446 1443 1441 1446 1443 1455 1474 1472 1469 1469 1471 1472 1475 1479
1429 1432 1437 1441 1445 1448 1450 1453 1459 1461 1470 1470 1470 1471 1474 1476 1475 1474 1474 1474 1472 1468 1462 1460 1457 1457 1453 1450 1451 1448 1446 1443 1444 1445 1455 1468 1472 1477 1478 1474 1481 1483 1482 1484
1430 1433 1438 1442 1445 1448 1451 1455 1459 1462 1465 1472 1472 1473 1475 1478 1477 1475 1473 1472 1469 1467 1465 1467 1467 1467 1462 1459 1455 1448 1448 1445 1444 1448 1451 1465 1480 1481 1479 1478 1484 1487 1487 1486
1430 1434 1438 1441 1444 1449 1453 1456 1460 1463 1467 1471 1472 1474 1476 1476 1476 1477 1476 1473 1470 1467 1471 1475 1476 1471 1464 1472 1466 1463 1458 1458 1461 1456 1463 1475 1486 1479 1476 1474 1493 1490 1488 1488
1431 1434 1438 1442 1445 1450 1453 1457 1461 1465 1467 1470 1472 1474 1474 1476 1475 1479 1476 1476 1474 1473 1478 1479 1480 1477 1472 1470 1470 1470 1471 1469 1472 1466 1470 1477 1486 1479 1481 1492 1493 1492 1491 1491
1432 1434 1438 1442 1446 1450 1454 1458 1462 1465 1469 1471 1472 1473 1474 1475 1475 1476 1475 1476 1476 1476 1481 1478 1479 1480 1477 1475 1479 1472 1477 1479 1479 1483 1488 1494 1492 1491 1491 1493 1494 1494 1494 1495
1432 1435 1438 1443 1447 1451 1456 1458 1463 1466 1469 1472 1473 1473 1474 1473 1475 1476 1477 1477 1476 1477 1479 1478 1479 1478 1478 1480 1480 1476 1479 1478 1483 1488 1493 1494 1495 1495 1494 1495 1495 1495 1495 1495
1433 1437 1440 1444 1447 1452 1456 1460 1463 1466 1469 1471 1475 1474 1474 1475 1476 1476 1477 1477 1477 1477 1478 1478 1479 1480 1477 1478 1478 1481 1483 1480 1485 1489 1493 1494 1495 1496 1497 1496 1496 1496 1497 1497
1434 1437 1441 1445 1449 1453 1458 1462 1464 1466 1471 1471 1473 1474 1475 1475 1476 1477 1477 1478 1477 1478 1478 1479 1480 1478 1478 1478 1480 1484 1484 1484 1485 1487 1486 1490 1495 1498 1499 1498 1498 1498 1497 1497
1436 1439 1443 1447 1452 1455 1459 1464 1466 1467 1468 1470 1474 1475 1475 1476 1478 1478 1478 1478 1478 1479 1479 1478 1477 1476 1478 1483 1484 1486 1485 1485 1485 1487 1488 1490 1494 1497 1499 1498 1500 1500 1498 1499
1438 1442 1445 1448 1453 1456 1459 1463 1465 1467 1469 1470 1474 1473 1474 1475 1477 1477 1478 1478 1478 1479 1478 1478 1477 1476 1476 1484 1486 1485 1486 1487 1487 1488 1490 1494 1495 1497 1499 1500 1500 1500 1500 1500
1440 1444 1446 1450 1454 1458 1462 1463 1464 1467 1470 1472 1475 1475 1474 1475 1475 1477 1477 1478 1478 1478 1478 1478 1477 1476 1476 1482 1482 1484 1486 1488 1490 1491 1491 1493 1495 1497 1499 1501 1501 1500 1500 1500
1441 1445 1449 1452 1457 1460 1462 1465 1467 1469 1473 1471 1473 1476 1481 1474 1474 1476 1478 1478 1480 1478 1477 1477 1477 1479 1481 1478 1479 1481 1484 1486 1489 1491 1492 1494 1495 1497 1498 1500 1500 1500 1499 1499
1443 1448 1451 1454 1458 1461 1464 1468 1470 1470 1471 1472 1471 1471 1472 1474 1474 1477 1479 1478 1480 1482 1478 1476 1478 1477 1475 1474 1476 1479 1483 1485 1487 1490 1493 1494 1495 1496 1497 1498 1499 1499 1499 1499
1445 1448 1451 1455 1460 1463 1465 1468 1469 1470 1472 1471 1470 1470 1471 1473 1475 1477 1478 1480 1480 1482 1480 1481 1482 1475 1473 1474 1476 1479 1483 1485 1487 1489 1490 1492 1493 1494 1496 1497 1498 1499 1499 1500
1446 1448 1453 1456 1461 1463 1465 1466 1467 1467 1466 1465 1466 1468 1470 1471 1473 1474 1477 1480 1482 1483 1478 1480 1484 1472 1470 1472 1474 1478 1481 1484 1486 1488 1489 1491 1493 1494 1495 1497 1498 1499 1500 1500
1446 1449 1452 1455 1460 1462 1464 1465 1460 1462 1457 1459 1462 1466 1468 1471 1473 1475 1476 1484 1488 1478 1479 1484 1472 1468 1470 1472 1474 1477 1480 1483 1484 1486 1488 1490 1492 1494 1496 1497 1498 1499 1500 1500
1447 1447 1451 1452 1455 1456 1453 1451 1452 1451 1451 1455 1459 1463 1465 1470 1474 1477 1483 1481 1479 1482 1484 1475 1463 1463 1467 1471 1473 1476 1478 1481 1483 1485 1487 1490 1491 1493 1495 1497 1498 1499 1499 1500
1446 1447 1449 1450 1450 1450 1450 1450 1450 1450 1452 1455 1459 1463 1467 1471 1476 1475 1480 1481 1480 1478 1476 1464 1457 1461 1465 1468 1471 1474 1477 1479 1482 1484 1486 1489 1491 1493 1495 1496 1497 1498 1498 1499
1448 1449 1450 1449 1449 1449 1450 1450 1451 1451 1454 1456 1459 1465 1471 1474 1475 1476 1478 1479 1481 1470 1461 1458 1458 1460 1464 1468 1471 1474 1477 1479 1481 1484 1486 1489 1491 1493 1495 1496 1496 1497 1497 1498
1450 1450 1450 1450 1450 1450 1450 1450 1451 1452 1454 1457 1460 1469 1470 1469 1476 1477 1471 1474 1463 1458 1457 1457 1458 1460 1463 1467 1471 1474 1476 1478 1481 1484 1486 1489 1491 1492 1494 1495 1496 1497 1497 1497
Wind_Speed
27 28 28 25 25 22 21 13 2 10 7 4 3 2 4 2 3 4 3 3 4 5 2 3 3 4 5 12 16 9 3 3 4 4 11 7 3 5 4 3 3 2 3 3
25 24 25 25 24 23 18 9 6 6 8 3 0 3 0 3 2 2 3 2 5 2 3 2 4 5 10 22 10 4 3 2 6 3 2 3 3 3 4 6 2 4 0 3
23 21 24 23 23 24 14 7 3 3 3 2 4 3 1 2 0 2 3 3 2 2 1 3 4 4 8 24 8 15 1 2 6 4 4 7 5 5 9 6 4 3 5 6
22 21 22 23 23 21 11 3 2 5 2 2 3 2 2 2 1 1 1 2 2 2 2 3 4 4 8 10 4 8 3 5 11 20 16 20 16 4 10 14 9 5 5 6
22 21 21 22 22 20 6 5 5 4 5 10 5 1 4 3 2 3 3 1 5 3 4 7 7 4 2 7 7 6 3 1 3 6 11 25 23 23 18 21 15 11 10 9
22 22 21 22 21 20 6 9 9 5 1 3 4 3 4 3 2 2 4 1 2 2 8 15 27 22 17 11 6 4 3 3 2 4 5 7 14 16 16 16 16 5 6 5
21 22 21 21 21 13 14 14 9 5 1 3 4 4 3 1 0 2 3 5 1 7 27 23 7 7 12 11 7 14 6 5 2 1 2 6 2 11 10 20 15 12 12 8
19 20 20 20 19 16 15 15 7 4 2 1 5 5 3 1 3 3 1 5 10 16 11 4 5 5 4 1 5 8 6 1 2 2 5 5 4 8 6 7 9 12 8 8
17 19 20 21 20 17 14 13 9 5 9 1 2 3 2 1 2 5 2 7 9 13 3 3 3 3 4 4 8 5 6 11 3 2 3 2 4 12 11 6 5 11 11 10
16 16 21 20 21 17 14 11 9 6 6 3 4 2 2 1 1 0 4 8 8 11 3 3 3 2 4 3 5 5 5 4 6 4 3 3 11 14 4 1 1 7 9 12
14 17 21 20 20 18 15 11 8 7 4 7 5 3 2 2 2 2 4 3 4 4 4 2 2 2 2 1 2 4 4 4 4 3 4 3 20 3 3 7 8 9 9 10
14 19 21 20 20 18 15 11 8 8 4 4 4 1 4 5 1 1 3 3 1 2 3 1 1 2 2 2 3 5 4 3 2 5 3 5 10 14 13 11 11 9 11 14
15 18 20 20 20 18 15 11 9 7 5 5 5 3 5 3 3 4 1 2 3 3 2 2 1 2 1 2 1 2 2 2 3 2 4 9 9 12 10 11 14 13 13 14
15 20 21 19 17 16 13 11 9 7 5 4 3 4 4 2 2 2 1 1 1 4 3 0 0 1 1 1 1 2 2 4 3 4 8 10 9 10 12 12 10 11 11 9
16 19 20 19 17 16 16 9 7 6 3 4 5 6 4 3 5 4 3 3 4 2 1 2 1 2 1 2 2 2 4 1 1 2 12 8 8 9 7 7 8 7 6 8
17 18 19 19 17 17 16 5 5 6 5 2 2 4 7 4 4 3 2 3 2 1 1 2 3 2 0 2 1 1 3 1 3 4 8 8 14 9 6 8 7 5 6 6
19 17 16 18 18 16 6 5 6 10 5 2 2 1 5 7 3 1 0 1 1 1 1 2 2 1 1 2 2 9 7 6 13 13 16 12 12 9 11 7 7 5 6 6
20 17 13 15 19 14 8 8 7 11 4 2 2 1 2 5 3 2 1 1 1 1 1 2 2 1 1 1 5 14 10 12 13 12 5 12 13 14 15 10 7 5 5 6
20 16 15 15 16 10 9 14 15 8 3 2 2 3 3 5 4 2 1 1 2 0 0 2 1 2 2 2 17 18 16 13 13 10 14 15 12 16 14 10 5 2 3 3
20 19 6 5 10 12 12 6 3 1 1 1 2 2 2 4 3 1 1 0 1 1 3 1 2 2 3 3 16 15 17 14 18 17 14 15 15 13 11 8 5 4 5 5
22 6 4 20 21 8 2 3 2 3 2 5 5 8 3 5 3 2 3 2 1 1 3 2 2 3 4 10 14 16 17 12 12 9 9 11 7 10 11 11 9 8 6 5
7 12 19 18 6 3 2 3 3 4 4 7 8 7 6 5 3 3 2 2 2 2 3 1 3 3 11 15 16 17 17 16 14 12 12 12 9 8 10 10 9 7 6 4
14 7 7 6 4 3 6 5 3 3 6 10 9 3 7 4 2 4 1 2 3 3 1 3 4 14 19 20 19 18 15 13 12 13 15 14 11 11 9 9 8 6 4 1
2 3 4 3 3 4 4 3 4 5 5 19 22 9 3 3 4 1 3 3 0 2 2 5 3 24 26 23 18 14 16 15 13 15 16 13 12 11 11 9 6 5 3 1
2 2 3 3 4 4 2 1 3 2 17 25 12 7 4 2 3 1 2 2 3 4 4 3 10 25 27 25 21 17 15 15 14 15 16 14 13 11 10 9 7 5 3 2
2 1 1 2 2 4 2 1 3 8 23 16 5 3 3 1 4 3 4 2 5 4 3 4 13 24 26 23 20 16 13 14 15 16 15 14 13 11 9 8 6 5 3 1
0 1 2 2 1 1 2 1 4 11 19 2 4 4 5 2 2 2 3 5 4 3 8 6 15 20 23 21 19 17 16 17 17 17 15 14 14 12 9 7 5 5 5 4
Wind_Direction
154 155 159 161 159 153 156 155 112 151 160 97 62 152 197 170 133 88 109 139 183 205 244 290 315 250 276 298 312 300 251 270 282 288 279 287 207 225 170 132 256 70 113 91
153 153 158 158 158 157 156 115 108 145 161 124 311 274 207 132 145 146 149 207 192 205 183 25 203 263 272 294 317 307 320 320 302 282 350 92 288 314 91 112 121 52 166 97
149 154 158 162 160 158 150 128 96 124 173 119 135 152 89 105 232 193 187 197 100 58 321 233 274 277 295 315 283 323 8 304 276 264 330 256 240 196 59 98 65 55 41 86
156 158 162 163 164 162 147 122 150 149 197 261 155 134 122 135 48 274 80 8 182 165 334 306 224 265 299 300 305 348 96 359 46 45 18 52 48 132 115 96 76 47 72 79
160 162 167 168 165 163 148 125 127 128 128 149 132 76 191 170 302 186 310 122 293 202 228 203 279 227 235 260 327 334 330 326 324 45 37 46 47 43 63 80 91 93 101 73
169 171 172 168 167 170 122 115 117 129 60 110 102 208 173 204 229 76 73 305 286 235 241 276 273 265 250 256 299 289 301 316 353 45 6 311 48 29 48 55 39 48 62 82
171 172 170 166 167 168 152 137 130 118 152 143 185 171 171 136 175 209 30 11 12 296 315 312 288 256 234 232 285 222 302 345 63 92 265 44 64 19 48 63 46 61 88 98
169 172 167 166 161 157 155 143 133 106 94 87 57 83 86 4 17 20 284 340 328 327 322 3 6 350 15 106 65 23 1 301 88 70 60 123 58 13 341 20 48 37 57 159
168 171 170 168 164 161 155 145 139 113 120 332 131 94 66 150 326 345 302 321 348 356 49 44 51 23 332 325 337 356 4 16 84 83 75 90 46 333 323 296 57 34 42 35
169 170 171 168 167 162 161 146 144 118 108 103 120 134 165 108 74 246 313 335 344 7 24 60 41 349 321 6 8 336 345 12 33 17 98 95 355 323 349 327 56 76 65 54
172 171 168 167 168 170 170 157 158 165 113 141 146 149 165 158 81 126 315 24 350 14 56 61 331 11 3 351 50 344 23 350 20 342 67 49 354 38 79 108 89 90 95 90
163 167 165 164 168 172 167 160 167 173 142 153 166 256 262 236 228 126 46 102 104 67 69 306 77 1 355 352 9 9 43 42 58 19 84 81 38 60 88 109 101 100 117 126
161 166 163 166 172 175 176 158 163 155 135 106 122 80 73 97 210 171 124 64 58 81 19 306 206 49 43 18 4 90 85 69 87 141 112 109 93 79 98 105 96 100 117 127
159 161 163 165 166 172 174 175 167 161 131 128 144 129 108 37 190 143 62 42 32 352 324 292 191 109 49 326 109 94 330 348 123 84 118 108 94 102 115 106 97 94 100 96
156 161 162 161 163 161 166 152 155 156 133 156 159 127 121 67 116 108 93 71 43 27 34 37 264 262 88 25 65 44 5 2 69 201 156 113 133 130 143 133 110 95 95 101
157 160 163 163 161 161 156 125 164 156 127 131 116 165 166 126 144 109 54 8 9 354 311 277 279 273 121 96 124 112 93 41 149 137 150 136 129 135 156 127 119 107 98 92
151 146 153 165 161 159 150 144 172 176 154 70 60 77 157 172 176 178 211 301 296 287 261 253 273 314 66 95 169 152 130 120 121 126 129 117 142 159 166 151 134 113 101 97
148 148 147 156 165 160 129 145 144 148 108 78 98 293 134 182 151 128 49 311 318 217 287 261 244 300 75 125 160 153 152 144 146 156 196 163 156 164 168 164 147 125 110 98
149 142 136 139 162 163 119 134 150 152 101 123 119 141 214 159 117 130 148 268 14 276 258 262 97 328 218 191 174 170 173 172 160 150 147 154 167 165 168 173 172 170 129 120
144 140 129 128 153 146 117 97 127 148 182 169 230 198 159 158 128 132 146 264 174 46 259 260 82 243 214 240 194 183 172 180 175 165 162 169 168 176 181 194 203 178 151 137
147 151 116 136 135 122 119 129 160 152 215 208 213 203 149 186 113 201 203 186 298 18 271 124 293 260 192 166 171 173 178 183 187 187 174 176 185 186 192 182 169 156 145 141
151 123 135 134 146 126 140 185 163 206 220 187 174 190 180 157 171 124 153 108 35 243 326 81 279 250 167 168 165 171 184 185 185 203 198 187 184 182 174 164 157 154 152 143
142 129 159 140 160 150 179 196 188 214 194 175 162 153 161 132 148 76 123 78 231 319 36 237 232 164 167 164 158 157 167 183 193 188 192 190 182 171 170 166 159 158 154 132
116 131 122 170 176 223 203 183 185 209 171 156 152 122 123 115 63 103 86 243 309 317 234 242 218 181 180 178 182 188 186 188 193 187 185 185 183 174 168 168 171 174 178 208
83 91 170 189 240 248 336 206 274 154 157 150 121 81 100 27 90 172 82 36 251 205 232 238 194 186 185 186 188 191 190 189 189 187 186 184 180 180 180 180 188 200 217 279
36 60 20 345 229 152 165 60 173 148 156 144 99 105 67 284 138 137 207 191 227 249 229 264 188 187 191 192 192 193 195 191 187 184 183 182 181 184 190 197 203 215 219 233
92 348 306 350 267 273 162 53 122 171 164 140 124 99 190 137 102 234 191 210 222 278 276 229 200 193 192 193 193 194 193 189 187 186 183 183 189 195 200 208 214 207 198 227